| time (UTC) | temp F | wind direction | speed knots | gust knots | rain 1hr in | rain 24hr in | rain mn in | humidity % | barometer mb |
| 20260507020025 | 65 | 220 | 0.0 | 1.7 | 0.00 | 0.07 | 0.07 | 84 | 1009.1 |
| 20260507014523 | 65 | 198 | 0.0 | 2.6 | 0.00 | 0.07 | 0.07 | 83 | 1009.1 |
| 20260507013017 | 65 | 228 | 0.0 | 2.6 | 0.00 | 0.07 | 0.07 | 84 | 1008.9 |
| 20260507011520 | 65 | 271 | 0.0 | 1.7 | 0.00 | 0.07 | 0.07 | 84 | 1008.8 |
| 20260507010026 | 65 | 256 | 0.0 | 1.7 | 0.00 | 0.07 | 0.07 | 84 | 1008.9 |
| 20260507004509 | 65 | 243 | 0.0 | 1.7 | 0.00 | 0.07 | 0.07 | 84 | 1009.1 |
| 20260507003007 | 65 | 240 | 0.0 | 0.9 | 0.00 | 0.07 | 0.07 | 83 | 1008.6 |
| 20260507001524 | 66 | 248 | 0.0 | 4.3 | 0.00 | 0.07 | 0.07 | 82 | 1008.4 |
| 20260507000027 | 66 | 238 | 0.0 | 2.6 | 0.00 | 0.07 | 0.07 | 81 | 1008.3 |
| 20260506234520 | 67 | 164 | 0.0 | 1.7 | 0.00 | 0.07 | 0.07 | 80 | 1008.3 |
| 20260506233020 | 67 | 207 | 0.0 | 1.7 | 0.00 | 0.07 | 0.07 | 80 | 1008.3 |
| 20260506231519 | 67 | 212 | 0.0 | 2.6 | 0.00 | 0.07 | 0.07 | 79 | 1008.1 |
| 20260506230013 | 67 | 240 | 0.0 | 3.5 | 0.00 | 0.07 | 0.07 | 78 | 1008.2 |
| 20260506224514 | 68 | 283 | 0.0 | 2.6 | 0.00 | 0.07 | 0.07 | 78 | 1008.1 |
| 20260506223015 | 68 | 262 | 0.0 | 7.0 | 0.00 | 0.07 | 0.07 | 77 | 1008.2 |
| 20260506221526 | 68 | 224 | 0.0 | 3.5 | 0.00 | 0.07 | 0.07 | 77 | 1007.9 |
| 20260506220030 | 68 | 167 | 0.9 | 3.5 | 0.00 | 0.07 | 0.07 | 78 | 1008.0 |
| 20260506214524 | 68 | 231 | 0.0 | 3.5 | 0.00 | 0.07 | 0.07 | 77 | 1007.8 |
| 20260506213030 | 68 | 170 | 1.7 | 4.3 | 0.00 | 0.07 | 0.07 | 77 | 1007.9 |
| 20260506211528 | 68 | 183 | 1.7 | 5.2 | 0.00 | 0.07 | 0.07 | 76 | 1007.7 |
| 20260506210015 | 67 | 227 | 1.7 | 4.3 | 0.00 | 0.07 | 0.07 | 78 | 1007.7 |
| 20260506204514 | 67 | 315 | 0.0 | 7.0 | 0.00 | 0.07 | 0.07 | 79 | 1007.8 |
| 20260506203030 | 66 | 264 | 0.9 | 7.8 | 0.00 | 0.07 | 0.07 | 80 | 1007.7 |
| 20260506201533 | 66 | 250 | 0.9 | 3.5 | 0.00 | 0.07 | 0.07 | 80 | 1007.5 |
| 20260506200028 | 65 | 199 | 0.9 | 6.1 | 0.00 | 0.07 | 0.07 | 81 | 1007.8 |
| 20260506194525 | 65 | 244 | 0.0 | 4.3 | 0.00 | 0.07 | 0.07 | 82 | 1008.0 |
| 20260506193022 | 65 | 223 | 1.7 | 4.3 | 0.00 | 0.07 | 0.07 | 82 | 1008.1 |
| 20260506191522 | 64 | 174 | 0.0 | 7.0 | 0.00 | 0.07 | 0.07 | 83 | 1008.3 |
| 20260506190019 | 64 | 191 | 0.9 | 7.0 | 0.00 | 0.07 | 0.07 | 83 | 1008.4 |
| 20260506184519 | 64 | 170 | 0.0 | 8.7 | 0.00 | 0.07 | 0.07 | 84 | 1008.3 |
| 20260506183026 | 63 | 165 | 1.7 | 6.1 | 0.00 | 0.07 | 0.07 | 85 | 1008.6 |
| 20260506181519 | 63 | 233 | 0.0 | 3.5 | 0.00 | 0.07 | 0.07 | 86 | 1008.6 |
| 20260506180009 | 63 | 151 | 0.0 | 5.2 | 0.00 | 0.07 | 0.07 | 87 | 1008.9 |
| 20260506174507 | 62 | 176 | 0.0 | 4.3 | 0.00 | 0.07 | 0.07 | 87 | 1008.9 |
| 20260506173007 | 62 | 144 | 1.7 | 6.1 | 0.00 | 0.07 | 0.07 | 87 | 1008.9 |
| 20260506171538 | 62 | 209 | 0.9 | 7.0 | 0.01 | 0.07 | 0.07 | 88 | 1009.1 |
| 20260506170024 | 62 | 340 | 0.9 | 7.0 | 0.03 | 0.07 | 0.07 | 88 | 1009.1 |
| 20260506164522 | 62 | 176 | 0.9 | 4.3 | 0.05 | 0.07 | 0.07 | 89 | 1009.2 |
| 20260506163018 | 63 | 79 | 0.9 | 4.3 | 0.06 | 0.07 | 0.07 | 89 | 1009.3 |
| 20260506161514 | 62 | 262 | 0.0 | 5.2 | 0.06 | 0.06 | 0.06 | 89 | 1009.7 |
| 20260506160014 | 62 | 254 | 0.0 | 2.6 | 0.04 | 0.04 | 0.04 | 88 | 1010.3 |
| 20260506154508 | 63 | 178 | 0.0 | 1.7 | 0.02 | 0.02 | 0.02 | 85 | 1010.3 |
| 20260506153005 | 63 | 234 | 0.9 | 3.5 | 0.01 | 0.01 | 0.01 | 82 | 1010.4 |
| 20260506151533 | 65 | 223 | 1.7 | 7.0 | 0.00 | 0.00 | 0.00 | 77 | 1010.2 |
| 20260506150029 | 66 | 152 | 0.9 | 9.6 | 0.00 | 0.00 | 0.00 | 73 | 1010.0 |
| 20260506144524 | 67 | 265 | 0.9 | 4.3 | 0.00 | 0.00 | 0.00 | 72 | 1010.0 |
| 20260506143037 | 67 | 292 | 0.9 | 5.2 | 0.00 | 0.00 | 0.00 | 72 | 1010.1 |
| 20260506141518 | 67 | 178 | 1.7 | 5.2 | 0.00 | 0.00 | 0.00 | 68 | 1010.2 |
| 20260506140016 | 68 | 188 | 2.6 | 10.4 | 0.00 | 0.00 | 0.00 | 66 | 1010.2 |
| 20260506134510 | 67 | 170 | 1.7 | 8.7 | 0.00 | 0.00 | 0.00 | 68 | 1010.1 |
| 20260506133026 | 66 | 174 | 2.6 | 13.9 | 0.00 | 0.00 | 0.00 | 70 | 1010.1 |
| 20260506131529 | 66 | 210 | 2.6 | 7.0 | 0.00 | 0.00 | 0.00 | 70 | 1010.1 |
| 20260506130025 | 66 | 156 | 1.7 | 6.1 | 0.00 | 0.00 | 0.00 | 71 | 1010.4 |
| 20260506124521 | 66 | 200 | 1.7 | 9.6 | 0.00 | 0.00 | 0.00 | 71 | 1010.4 |
| 20260506123021 | 66 | 217 | 0.9 | 6.1 | 0.00 | 0.00 | 0.00 | 74 | 1010.2 |
| 20260506121520 | 65 | 241 | 0.9 | 4.3 | 0.00 | 0.00 | 0.00 | 74 | 1010.2 |
| 20260506120018 | 65 | 143 | 0.0 | 5.2 | 0.00 | 0.00 | 0.00 | 75 | 1010.1 |
| 20260506114519 | 63 | 104 | 0.0 | 3.5 | 0.00 | 0.00 | 0.00 | 78 | 1010.1 |
| 20260506113026 | 64 | 80 | 0.0 | 3.5 | 0.00 | 0.00 | 0.00 | 78 | 1010.2 |
| 20260506111527 | 63 | 159 | 0.9 | 5.2 | 0.00 | 0.00 | 0.00 | 78 | 1010.2 |
| 20260506110034 | 63 | 85 | 0.9 | 2.6 | 0.00 | 0.00 | 0.00 | 78 | 1010.1 |
| 20260506104527 | 63 | 81 | 0.0 | 2.6 | 0.00 | 0.00 | 0.00 | 79 | 1010.0 |
| 20260506103024 | 63 | 50 | 0.0 | 2.6 | 0.00 | 0.00 | 0.00 | 79 | 1010.0 |
| 20260506101543 | 62 | 93 | 0.9 | 4.3 | 0.00 | 0.00 | 0.00 | 80 | 1010.1 |
| 20260506100019 | 62 | 34 | 0.9 | 1.7 | 0.00 | 0.00 | 0.00 | 80 | 1010.0 |
| 20260506094528 | 62 | 61 | 0.0 | 2.6 | 0.00 | 0.00 | 0.00 | 80 | 1010.1 |
| 20260506093028 | 63 | 226 | 0.0 | 5.2 | 0.00 | 0.00 | 0.00 | 79 | 1010.0 |
| 20260506091517 | 63 | 210 | 0.0 | 2.6 | 0.00 | 0.00 | 0.00 | 78 | 1009.9 |
| 20260506090009 | 64 | 107 | 0.9 | 3.5 | 0.00 | 0.00 | 0.00 | 78 | 1010.1 |
| 20260506084516 | 64 | 173 | 0.0 | 4.3 | 0.00 | 0.00 | 0.00 | 77 | 1010.1 |
| 20260506083026 | 64 | 359 | 0.9 | 5.2 | 0.00 | 0.00 | 0.00 | 77 | 1010.1 |
| 20260506081524 | 64 | 44 | 0.0 | 1.7 | 0.00 | 0.00 | 0.00 | 78 | 1010.2 |
| 20260506073016 | 64 | 202 | 0.0 | 1.7 | 0.00 | 0.00 | 0.00 | 78 | 1010.3 |
| 20260506071517 | 65 | 1 | 0.0 | 2.6 | 0.00 | 0.00 | 0.00 | 76 | 1010.3 |
| 20260506061526 | 65 | 54 | 0.0 | 1.7 | 0.00 | 0.00 | 0.00 | 76 | 1010.5 |
| 20260506044528 | 67 | 201 | 0.0 | 3.5 | 0.00 | 0.00 | 0.00 | 69 | 1011.1 |
| 20260506043028 | 66 | 122 | 0.0 | 3.5 | 0.00 | 0.00 | 0.00 | 69 | 1011.1 |
| 20260506041531 | 66 | 129 | 0.0 | 3.5 | 0.00 | 0.00 | 0.00 | 69 | 1011.2 |
| 20260506040028 | 66 | 169 | 0.9 | 2.6 | 0.00 | 0.00 | 0.00 | 68 | 1011.1 |
| 20260506034526 | 67 | 276 | 0.0 | 2.6 | 0.00 | 0.00 | 0.00 | 67 | 1011.1 |
| 20260506033027 | 67 | 231 | 0.0 | 1.7 | 0.00 | 0.00 | 0.00 | 67 | 1010.9 |
| 20260506031523 | 67 | 318 | 0.0 | 2.6 | 0.00 | 0.00 | 0.00 | 66 | 1011.0 |
| 20260506030023 | 67 | 204 | 0.0 | 2.6 | 0.00 | 0.00 | 0.00 | 65 | 1011.1 |
| 20260506024527 | 67 | 174 | 0.9 | 3.5 | 0.00 | 0.00 | 0.00 | 65 | 1011.1 |
| 20260506023025 | 67 | 348 | 0.0 | 1.7 | 0.00 | 0.00 | 0.00 | 65 | 1011.1 |
| 20260506021528 | 68 | 329 | 0.0 | 1.7 | 0.00 | 0.00 | 0.00 | 63 | 1011.1 |